GW1854 Weather Reports


time (UTC)temp
C
wind
direction
speed
KPH
gust
KPH
rain 1hr
cm
rain 24hr
cm
rain mn
cm
humidity
%
barometer
mb
20260504060123 8 315 12.9 32.2 0.00 0.00 0.00 45 1015.5
20260504050124 9 338 16.1 37.0 0.00 0.00 0.00 42 1015.0
20260504045123 9 323 12.9 30.6 0.00 0.00 0.00 42 1014.9
20260504044123 9 322 9.7 30.6 0.00 0.00 0.00 41 1014.9
20260504043144 9 311 6.4 24.1 0.00 0.00 0.00 41 1014.8
20260504042125 10 334 9.7 29.0 0.00 0.00 0.00 41 1014.7
20260504041123 10 334 16.1 40.2 0.00 0.00 0.00 40 1014.5
20260504040123 10 323 19.3 45.1 0.00 0.00 0.00 39 1014.3
20260504035125 10 341 19.3 51.5 0.00 0.00 0.00 38 1014.0
20260504034144 10 316 17.7 45.1 0.00 0.00 0.00 37 1014.0
20260504033123 11 339 12.9 45.1 0.00 0.00 0.00 36 1013.9
20260504032123 11 304 16.1 46.7 0.00 0.00 0.00 35 1013.8
20260504031123 11 330 14.5 43.5 0.00 0.00 0.00 35 1013.5
20260504030123 11 323 20.9 46.7 0.00 0.00 0.00 35 1013.4
20260504025123 11 328 27.4 59.5 0.00 0.00 0.00 34 1013.3
20260504024125 12 330 17.7 59.5 0.00 0.00 0.00 34 1013.3
20260504023144 12 341 22.5 66.0 0.00 0.00 0.00 36 1013.0
20260504022123 12 315 6.4 29.0 0.00 0.00 0.00 39 1013.2
20260504021123 12 347 11.3 45.1 0.00 0.00 0.00 40 1013.0
20260504020123 12 352 16.1 43.5 0.00 0.00 0.00 40 1013.2
20260504015124 12 355 22.5 54.7 0.00 0.00 0.00 40 1013.0
20260504014123 12 336 14.5 45.1 0.00 0.00 0.00 38 1013.0
20260504013146 13 356 19.3 45.1 0.00 0.00 0.00 37 1013.0
20260504012123 13 350 16.1 54.7 0.00 0.00 0.00 36 1012.9
20260504011123 13 12 22.5 62.8 0.00 0.00 0.00 35 1012.7
20260504010144 13 317 12.9 51.5 0.00 0.00 0.00 36 1012.4
20260504005123 13 314 25.7 64.4 0.00 0.00 0.00 36 1012.4
20260504004124 13 318 25.7 56.3 0.00 0.00 0.00 38 1012.4
20260504003123 13 307 20.9 49.9 0.00 0.00 0.00 39 1012.4
20260504002123 14 316 16.1 43.5 0.00 0.00 0.00 39 1012.2
20260504001124 14 348 19.3 59.5 0.00 0.00 0.00 39 1012.2
20260504000123 13 316 16.1 45.1 0.00 0.00 0.00 39 1012.2
20260503235124 13 335 19.3 51.5 0.00 0.00 0.00 39 1012.2
20260503234123 14 299 14.5 43.5 0.00 0.00 0.00 38 1012.2
20260503233144 14 350 22.5 51.5 0.00 0.00 0.00 38 1011.9
20260503232122 14 333 25.7 57.9 0.00 0.00 0.00 38 1011.8
20260503231122 15 345 20.9 54.7 0.00 0.00 0.00 37 1011.9
20260503230145 15 342 25.7 64.4 0.00 0.00 0.00 36 1011.8
20260503225123 15 343 24.1 67.6 0.00 0.00 0.00 36 1011.5
20260503224123 15 313 25.7 61.2 0.00 0.00 0.00 35 1011.5
20260503223122 15 309 32.2 69.2 0.00 0.00 0.00 33 1011.5
20260503222123 15 299 25.7 57.9 0.00 0.00 0.00 34 1011.4
20260503221123 15 303 29.0 69.2 0.00 0.00 0.00 34 1011.5
20260503220122 15 285 30.6 67.6 0.00 0.00 0.00 34 1011.2
20260503215125 15 290 30.6 67.6 0.00 0.00 0.00 34 1011.3
20260503214122 15 289 30.6 75.6 0.00 0.00 0.00 34 1011.3
20260503213123 15 296 33.8 74.0 0.00 0.00 0.00 34 1011.3
20260503212123 15 302 32.2 82.1 0.00 0.00 0.00 34 1011.3
20260503211123 16 300 24.1 59.5 0.00 0.00 0.00 34 1011.3
20260503210122 15 333 22.5 61.2 0.00 0.00 0.00 34 1011.3
20260503205123 15 317 27.4 64.4 0.00 0.00 0.00 34 1011.3
20260503204123 16 329 22.5 54.7 0.00 0.00 0.00 34 1011.3
20260503203123 15 311 24.1 59.5 0.00 0.00 0.00 34 1011.3
20260503202124 16 315 24.1 59.5 0.00 0.00 0.00 34 1011.3
20260503201125 15 338 29.0 67.6 0.00 0.00 0.00 33 1011.2
20260503200123 16 310 22.5 61.2 0.00 0.00 0.00 33 1011.0
20260503195125 16 328 30.6 67.6 0.00 0.00 0.00 33 1010.9
20260503194124 16 349 20.9 59.5 0.00 0.00 0.00 32 1010.9
20260503193122 16 316 29.0 62.8 0.00 0.00 0.00 32 1010.8
20260503192122 16 325 27.4 62.8 0.00 0.00 0.00 32 1010.9
20260503191122 17 311 29.0 67.6 0.00 0.00 0.00 31 1011.0
20260503190125 17 303 30.6 74.0 0.00 0.00 0.00 32 1010.9
20260503185123 17 303 30.6 67.6 0.00 0.00 0.00 32 1010.8
20260503184124 17 309 29.0 54.7 0.00 0.00 0.00 32 1010.8
20260503183122 17 315 25.7 59.5 0.00 0.00 0.00 32 1010.8
20260503182122 18 294 25.7 70.8 0.00 0.00 0.00 32 1010.9
20260503181144 18 292 17.7 48.3 0.00 0.00 0.00 33 1010.9
20260503180122 17 312 20.9 45.1 0.00 0.00 0.00 34 1011.0
20260503175124 17 310 27.4 59.5 0.00 0.00 0.00 34 1011.0
20260503174123 17 301 25.7 59.5 0.00 0.00 0.00 33 1011.0
20260503173122 17 304 27.4 67.6 0.00 0.00 0.00 32 1010.8
20260503172123 17 291 19.3 51.5 0.00 0.00 0.00 32 1010.9
20260503171122 18 305 20.9 49.9 0.00 0.00 0.00 32 1010.8
20260503170124 17 308 24.1 53.1 0.00 0.00 0.00 33 1010.7
20260503160122 16 312 22.5 48.3 0.00 0.00 0.00 41 1011.0
20260503150144 15 298 14.5 38.6 0.00 0.00 0.00 43 1010.5
20260503140123 14 277 22.5 48.3 0.00 0.00 0.00 44 1010.2
20260503131122 12 270 9.7 25.7 0.00 0.00 0.00 46 1010.0
20260503130122 12 268 12.9 27.4 0.00 0.00 0.00 46 1010.0
20260503120122 11 268 12.9 32.2 0.00 0.00 0.00 47 1010.2
20260503110123 11 265 4.8 19.3 0.00 0.00 0.00 47 1010.0
20260503100122 11 247 0.0 11.3 0.00 0.00 0.00 46 1010.5
20260503090122 11 248 0.0 0.0 0.00 0.00 0.00 44 1010.5
20260503081122 13 281 9.7 24.1 0.00 0.00 0.00 39 1010.9
20260503080122 13 272 8.0 20.9 0.00 0.00 0.00 38 1010.9
20260503072122 14 269 9.7 20.9 0.00 0.00 0.00 37 1010.9
20260503071124 14 270 8.0 20.9 0.00 0.00 0.00 37 1011.0
20260503070143 15 268 8.0 20.9 0.00 0.00 0.00 37 1010.9